[[{"header":{"parameterUnit":"m.s-1","parameterCategory":1,"la1":30.2991,"la2":30.254,"lo1":-89.0895,"lo2":-89.0444,"dy":0.0017,"dx":0.0017,"nx":28,"ny":28,"refTime":"2024-09-25T21:00:00:Z","depth":0,"parameterNumber":2,"parameterNumberName":"U-component_of_WINDS"},"data":[0,0,0,0,0,0,0,0,0,0,0,0,0,0,0,0,0,0,0,0,0,0,0,0,0,0,0,0,0,0,0,0,0,0,0,0,0,0,0,0,0,0,0,0,0,0,0,0,0,0,0,0,0,0,0,0,0,0,5.5834,5.5836,0,5.6031,5.6034,5.6036,5.599,5.5986,5.5983,5.5979,5.6182,5.6191,5.62,0,0,0,0,0,0,0,0,0,0,0,0,0,5.5417,5.5425,5.5834,5.5836,5.5839,5.6031,5.6034,5.6037,5.5991,5.5986,5.5982,5.5977,5.6179,5.619,5.62,0,0,0,0,0,0,0,0,0,0,0,0,0,5.5605,5.5427,5.5833,5.5839,5.5842,5.6031,5.6034,5.6037,5.5992,5.5986,5.5981,5.5975,5.6176,5.6189,5.6202,5.6398,0,0,5.6243,5.6249,0,0,0,0,0,0,0,0,5.5594,5.562,5.5836,5.5839,5.5842,5.598,5.5961,5.6158,5.5993,5.5935,5.5979,5.5973,5.612,5.6137,5.6187,5.6407,5.6416,5.6244,5.6252,5.6258,5.6262,0,0,0,0,0,0,0,5.5581,5.5611,5.5912,5.5839,5.5843,5.5832,5.5852,5.5998,5.6057,5.594,5.5937,5.5961,5.612,5.6174,5.6191,5.6419,5.6244,5.6255,5.6264,5.6269,5.6808,5.6814,0,0,0,0,0,0,5.5565,5.5601,5.5906,5.5918,5.5702,5.5844,5.5867,5.5942,5.6055,5.6067,5.5965,5.5958,5.6154,5.6176,5.6198,5.6434,5.6258,5.627,5.6278,5.6802,5.681,5.6816,0,0,0,0,0,0,5.5557,5.5593,5.5898,5.5759,5.5797,5.5857,5.5942,5.5949,5.6002,5.6074,5.6084,5.6009,5.615,5.6179,5.6348,5.644,5.6276,5.6288,5.6795,5.6804,5.6813,5.6907,0,0,0,0,0,0,5.5545,5.559,5.5665,5.5761,5.5804,5.6045,5.5947,5.5957,5.6025,5.6017,5.6118,5.613,5.6148,5.6328,5.6361,5.6455,5.6299,5.6787,5.6799,5.681,5.6896,5.6918,5.6937,0,0,0,0,0,5.553,5.5684,5.5669,5.5706,5.5899,5.605,5.6075,5.6093,5.6033,5.6109,5.6155,5.6126,5.6425,5.6346,5.6383,5.6482,5.6781,5.6795,5.6809,5.6886,5.6914,5.6937,0,0,0,0,0,0,5.5598,5.5697,5.5681,5.5871,5.5952,5.6042,5.6138,5.6121,5.6222,5.621,5.6228,5.6252,5.6423,5.647,5.638,5.6677,5.6594,5.6616,5.664,5.6667,5.6687,5.6672,5.631,0,0,0,0,0,5.5635,5.5749,5.5829,5.5989,5.603,5.6077,5.6144,5.615,5.6236,5.627,5.6328,5.6412,5.6525,5.6599,5.6706,5.6902,5.6923,5.6989,5.701,5.7027,5.7045,5.7151,5.7181,5.6863,5.6863,5.6863,0,0,5.5713,5.5781,5.5852,5.6004,5.6068,5.6185,5.6107,5.6235,5.6322,5.6289,5.6452,5.6498,5.6593,5.6776,5.6859,5.682,5.7138,5.7045,5.7057,5.7067,5.7169,5.7199,5.7226,5.6873,5.6871,5.6869,0,0,5.5914,5.5977,5.6116,5.6182,5.628,5.631,5.6343,5.6436,5.6465,5.6628,5.6606,5.671,5.6904,5.6972,5.7032,5.7259,5.7236,5.7293,5.7402,5.7505,5.753,5.7552,5.7632,5.7661,5.7312,5.7312,5.7312,0,5.5998,5.6174,5.619,5.632,5.6387,5.6363,5.6504,5.6567,5.6695,5.6742,5.6696,5.6938,5.7,5.7198,5.7253,5.7303,5.7341,5.7281,5.7525,5.7548,5.7569,5.7645,5.7675,5.7318,5.7318,5.7317,5.7316,0,5.6272,5.6395,5.6496,5.6619,5.6698,5.6833,5.6869,5.6947,5.6946,5.6981,5.7147,5.7221,5.7343,5.7391,5.7392,5.7589,5.7561,5.7521,5.7437,5.7605,5.7677,5.7706,5.7327,5.7325,5.7323,5.7322,0,0,5.6522,5.6652,5.6689,5.6744,5.685,5.6945,5.7078,5.7197,5.7262,5.7352,5.7463,5.7628,5.759,5.7658,5.7667,5.7758,5.7931,5.7706,5.7708,5.7744,5.8151,5.818,5.8214,5.7917,5.7923,5.7927,5.8143,0,5.6732,5.6967,5.6984,5.7196,5.7309,5.7287,5.7403,5.7481,5.7517,5.7618,5.7658,5.7773,5.7716,5.7757,5.7845,5.7891,5.8013,5.7876,5.8021,5.8025,5.7996,5.8251,5.8283,5.8482,5.8171,5.8176,5.8179,0,5.7008,5.7105,5.7327,5.7416,5.7464,5.7568,5.7677,5.7774,5.7861,5.7881,5.7957,5.7953,5.809,5.8003,5.8191,5.8097,5.8158,5.8189,5.8197,5.821,5.8112,5.827,5.8547,5.8576,5.8224,5.822,5.8217,0,5.7166,5.7352,5.7509,5.7557,5.7665,5.7738,5.7787,5.7868,5.7938,5.8034,5.8079,5.819,5.825,5.8336,5.8362,5.8296,5.8549,5.8464,5.8569,5.8568,5.8622,5.8618,5.8911,5.8663,5.8663,5.8662,5.8662,0,5.7398,5.7535,5.7581,5.7678,5.783,5.7849,5.7999,5.8044,5.8116,5.822,5.8209,5.8307,5.8336,5.8439,5.8461,5.8613,5.8641,5.866,5.8664,5.866,5.8658,5.8699,5.8685,5.867,5.8669,5.8667,5.8666,0,5.76,5.7637,5.7806,5.7894,5.7919,5.8028,5.8103,5.8195,5.8229,5.8362,5.8394,5.8448,5.8568,5.8603,5.8749,5.8763,5.8941,5.8932,5.8911,5.8911,5.9013,5.9002,5.9341,5.9386,5.911,5.9113,5.9115,0,5.7745,5.785,5.7949,5.8017,5.8069,5.818,5.8251,5.8274,5.8348,5.8454,5.8534,5.8653,5.8749,5.8944,5.8996,5.9106,5.91,5.9211,5.9117,5.9109,5.91,5.9093,5.9103,5.9229,5.9232,5.9234,5.9236,0,5.7998,5.8011,5.8113,5.8222,5.8307,5.8394,5.8477,5.8534,5.8569,5.8653,5.8776,5.8851,5.8999,5.9117,5.9229,5.9279,5.9263,5.9265,5.9295,5.9292,5.9275,5.9284,5.8958,5.9257,5.9255,5.9254,5.9252,5.9252,5.8176,5.8267,5.835,5.8465,5.853,5.8608,5.8698,5.8744,5.8846,5.8968,5.8976,5.9109,5.9192,5.9341,5.9397,5.9501,5.9468,5.9512,5.9523,5.9533,5.954,5.9259,5.9522,5.9521,5.9521,5.952,5.952,0,5.8427,5.8479,5.8584,5.8701,5.879,5.8768,5.8859,5.8935,5.9052,5.9131,5.9226,5.9367,5.9481,5.9542,5.9656,5.9727,5.9723,5.9756,5.975,5.9762,5.9564,5.9526,5.9758,5.9758,5.9758,5.9758,5.9757,5.9757,5.8568,5.8721,5.8743,5.8928,5.898,5.9109,5.9163,5.9235,5.9298,5.9455,5.955,5.9588,5.966,5.9779,5.9882,5.9897,5.9939,5.9976,5.9987,5.98,5.9776,5.9753,5.9717,5.9985,5.9986,6.0176,6.0178,6.0179]},{"header":{"parameterUnit":"m.s-1","parameterCategory":1,"la1":30.2991,"la2":30.254,"lo1":-89.0895,"lo2":-89.0444,"dy":0.0017,"dx":0.0017,"nx":28,"ny":28,"refTime":"2024-09-25T21:00:00:Z","depth":0,"parameterNumber":3,"parameterNumberName":"V-component_of_WINDS"},"data":[0,0,0,0,0,0,0,0,0,0,0,0,0,0,0,0,0,0,0,0,0,0,0,0,0,0,0,0,0,0,0,0,0,0,0,0,0,0,0,0,0,0,0,0,0,0,0,0,0,0,0,0,0,0,0,0,0,0,-1.6484,-1.6485,0,-1.6592,-1.6593,-1.6594,-1.6585,-1.6583,-1.6582,-1.658,-1.6693,-1.6698,-1.6702,0,0,0,0,0,0,0,0,0,0,0,0,0,-1.6272,-1.6276,-1.6483,-1.6485,-1.6486,-1.6591,-1.6593,-1.6594,-1.6585,-1.6583,-1.6581,-1.658,-1.6692,-1.6697,-1.6703,0,0,0,0,0,0,0,0,0,0,0,0,0,-1.637,-1.6277,-1.6483,-1.6494,-1.6496,-1.6591,-1.6593,-1.6595,-1.6586,-1.6583,-1.6581,-1.6579,-1.669,-1.6697,-1.6703,-1.6795,0,0,-1.6724,-1.6727,0,0,0,0,0,0,0,0,-1.6365,-1.6378,-1.6491,-1.6494,-1.6496,-1.6572,-1.656,-1.6662,-1.6586,-1.6552,-1.658,-1.6577,-1.6655,-1.6665,-1.6691,-1.68,-1.6805,-1.6725,-1.6729,-1.6732,-1.6734,0,0,0,0,0,0,0,-1.6358,-1.6373,-1.6526,-1.6493,-1.6496,-1.6495,-1.6506,-1.6579,-1.6616,-1.6555,-1.6554,-1.6567,-1.6656,-1.6684,-1.6693,-1.6807,-1.6725,-1.6731,-1.6735,-1.6738,-1.6998,-1.7001,0,0,0,0,0,0,-1.6348,-1.6368,-1.6523,-1.653,-1.6423,-1.6501,-1.6513,-1.655,-1.6615,-1.6623,-1.6569,-1.6566,-1.6674,-1.6685,-1.6697,-1.6809,-1.6732,-1.6738,-1.6742,-1.6995,-1.6999,-1.7002,0,0,0,0,0,0,-1.6344,-1.6362,-1.6518,-1.6449,-1.6468,-1.6507,-1.6549,-1.6554,-1.6582,-1.6626,-1.6633,-1.6591,-1.6672,-1.6687,-1.6771,-1.6813,-1.6741,-1.6747,-1.6992,-1.6996,-1.7,-1.7034,0,0,0,0,0,0,-1.6338,-1.6361,-1.6395,-1.6449,-1.6472,-1.659,-1.6551,-1.6558,-1.6593,-1.659,-1.6648,-1.6655,-1.6671,-1.6761,-1.6777,-1.6821,-1.6753,-1.6988,-1.6994,-1.6999,-1.7029,-1.7038,-1.7047,0,0,0,0,0,-1.633,-1.64,-1.6397,-1.6416,-1.6516,-1.6592,-1.6605,-1.6621,-1.6597,-1.6632,-1.6661,-1.6654,-1.6805,-1.6769,-1.6788,-1.6834,-1.6986,-1.6992,-1.6998,-1.7025,-1.7037,-1.7046,0,0,0,0,0,0,-1.6351,-1.6408,-1.6404,-1.6494,-1.6538,-1.659,-1.6635,-1.6633,-1.6686,-1.6681,-1.67,-1.6713,-1.6797,-1.6824,-1.6782,-1.6927,-1.6892,-1.6903,-1.6906,-1.6917,-1.6926,-1.6918,-1.6758,0,0,0,0,0,-1.6366,-1.6422,-1.6469,-1.6544,-1.6566,-1.6597,-1.6631,-1.6639,-1.6686,-1.6705,-1.674,-1.6786,-1.6844,-1.6882,-1.6938,-1.7033,-1.7046,-1.7074,-1.7083,-1.709,-1.7099,-1.7152,-1.7165,-1.7023,-1.7022,-1.7022,0,0,-1.6397,-1.6435,-1.647,-1.6549,-1.6584,-1.6643,-1.6613,-1.6676,-1.672,-1.6715,-1.6795,-1.6823,-1.6876,-1.6965,-1.7006,-1.699,-1.7141,-1.7098,-1.7103,-1.7108,-1.716,-1.7173,-1.7185,-1.7027,-1.7026,-1.7025,0,0,-1.6485,-1.6519,-1.6585,-1.6621,-1.6674,-1.6695,-1.6711,-1.6763,-1.6781,-1.6862,-1.686,-1.6913,-1.7012,-1.7051,-1.7083,-1.7186,-1.7181,-1.7203,-1.725,-1.7301,-1.7313,-1.7323,-1.736,-1.7373,-1.7212,-1.7212,-1.7212,0,-1.6518,-1.6605,-1.662,-1.6684,-1.6719,-1.6716,-1.6784,-1.6819,-1.6888,-1.6913,-1.6894,-1.7019,-1.7055,-1.7153,-1.7178,-1.7204,-1.7224,-1.7197,-1.7309,-1.732,-1.7329,-1.7366,-1.7379,-1.7215,-1.7214,-1.7214,-1.7214,0,-1.6643,-1.6704,-1.6751,-1.6818,-1.6858,-1.6924,-1.695,-1.6989,-1.6994,-1.7017,-1.71,-1.7143,-1.7208,-1.7232,-1.7237,-1.7332,-1.732,-1.7305,-1.7271,-1.7345,-1.7379,-1.7393,-1.7218,-1.7217,-1.7216,-1.7216,0,0,-1.6747,-1.6821,-1.6838,-1.6868,-1.6927,-1.6975,-1.7041,-1.7104,-1.7138,-1.7186,-1.7242,-1.7327,-1.7313,-1.735,-1.7361,-1.7406,-1.7485,-1.7385,-1.7387,-1.7403,-1.7593,-1.7604,-1.762,-1.7483,-1.7485,-1.7487,-1.7589,0,-1.6841,-1.6957,-1.6973,-1.7076,-1.7133,-1.7131,-1.7189,-1.7232,-1.7255,-1.7307,-1.7333,-1.7393,-1.737,-1.7392,-1.7437,-1.7466,-1.7524,-1.7459,-1.7537,-1.7539,-1.7524,-1.7638,-1.765,-1.7744,-1.7602,-1.7604,-1.7606,0,-1.6967,-1.7018,-1.7126,-1.7178,-1.7202,-1.7254,-1.7313,-1.7362,-1.7412,-1.7425,-1.7466,-1.7471,-1.7541,-1.7503,-1.76,-1.7555,-1.7588,-1.7608,-1.7612,-1.762,-1.7578,-1.765,-1.7774,-1.7788,-1.7627,-1.7625,-1.7624,0,-1.7033,-1.7129,-1.7206,-1.7232,-1.7294,-1.733,-1.7358,-1.7404,-1.7441,-1.7493,-1.7518,-1.7577,-1.761,-1.7657,-1.7678,-1.7649,-1.7774,-1.7738,-1.7788,-1.7788,-1.7815,-1.7814,-1.7947,-1.7835,-1.7835,-1.7834,-1.7834,0,-1.7137,-1.7204,-1.7237,-1.7284,-1.7359,-1.7377,-1.7451,-1.7477,-1.7519,-1.7573,-1.7575,-1.7626,-1.765,-1.7705,-1.7722,-1.78,-1.7815,-1.7829,-1.7833,-1.7829,-1.7827,-1.7851,-1.7846,-1.7838,-1.7837,-1.7837,-1.7836,0,-1.7224,-1.7248,-1.7333,-1.7384,-1.7399,-1.7452,-1.7496,-1.7543,-1.7566,-1.7634,-1.7651,-1.7687,-1.7751,-1.7777,-1.7856,-1.7867,-1.7958,-1.7956,-1.7941,-1.7942,-1.7992,-1.7987,-1.8146,-1.8168,-1.8041,-1.8042,-1.8043,0,-1.7289,-1.734,-1.7397,-1.7433,-1.7461,-1.7519,-1.7556,-1.7576,-1.7615,-1.7675,-1.7715,-1.7779,-1.7832,-1.7935,-1.7969,-1.803,-1.803,-1.8082,-1.804,-1.8035,-1.8033,-1.803,-1.8035,-1.809,-1.8091,-1.8092,-1.8093,0,-1.7403,-1.7412,-1.7466,-1.7524,-1.7569,-1.7616,-1.7661,-1.7691,-1.7717,-1.7762,-1.7827,-1.7868,-1.7948,-1.8013,-1.8075,-1.8105,-1.8105,-1.8106,-1.8121,-1.8119,-1.8108,-1.8116,-1.7963,-1.8102,-1.8102,-1.8101,-1.81,-1.81,-1.7482,-1.7528,-1.7575,-1.7635,-1.7671,-1.7714,-1.776,-1.7788,-1.7843,-1.791,-1.7918,-1.7989,-1.8037,-1.8121,-1.8154,-1.821,-1.8197,-1.8218,-1.8224,-1.8229,-1.8233,-1.8098,-1.8221,-1.8221,-1.8221,-1.8221,-1.8221,0,-1.7597,-1.7627,-1.7681,-1.7745,-1.7792,-1.7786,-1.7836,-1.7877,-1.7939,-1.7984,-1.8035,-1.8111,-1.8174,-1.8212,-1.8275,-1.8313,-1.8314,-1.8329,-1.8327,-1.8334,-1.8241,-1.8222,-1.8327,-1.8327,-1.8327,-1.8327,-1.8327,-1.8327,-1.7662,-1.7739,-1.7754,-1.785,-1.788,-1.7949,-1.7978,-1.8018,-1.8054,-1.8138,-1.819,-1.8214,-1.8257,-1.8323,-1.8381,-1.8391,-1.8414,-1.843,-1.8439,-1.8352,-1.8341,-1.833,-1.8313,-1.8435,-1.8435,-1.8528,-1.8529,-1.853]}]]